Location: *
(50.3440°N, 18.6237°E)
Time: 17:38:31
(UTC+00:00)

Helios 1A Rocket - Pass Details

Date: 30 November 2020
Orbit: 564 x 585 km, 98.3° (Epoch: 22 January)

Event Time Altitude Azimuth Distance (km) Brightness Sun altitude
Exits shadow 17:29:42 65° 258° (WSW) 623 3.2 -25.3°
Drops below altitude 10° 17:33:43 10° 340° (NNW) 1,873 5.7 -25.9°
Sets 17:35:53 0° 344° (NNW) 2,776 6.6 -26.3°
